SCP
3 3 3 3 4 6 7 7 6 4 3 3 2 2 1 1 1 1 1 1 1 0 0 0 0 0 0 0 0 0 0 0 0 1 0 0 1 1 1 2 2 2 2
3 3 3 2 3 4 5 5 4 4 3 2 2 2 1 1 1 1 1 1 1 0 0 0 0 0 0 0 0 0 0 0 0 0 0 0 0 1 1 1 2 2 2
2 2 1 1 2 2 3 3 3 3 3 2 2 2 2 1 1 1 1 1 1 1 0 0 0 0 0 0 0 0 0 0 0 0 0 0 0 0 0 1 1 2 2
1 1 1 1 1 1 2 2 3 3 3 3 2 2 2 1 1 1 1 2 1 1 1 1 0 0 0 0 0 0 0 0 0 0 0 0 0 0 0 0 1 1 1
1 1 1 1 1 1 1 2 3 3 3 3 3 2 2 2 1 1 2 2 2 1 1 1 1 1 0 0 0 0 0 0 0 0 0 0 0 0 0 0 0 1 1
0 0 0 0 0 1 1 1 2 2 2 3 3 3 2 2 2 2 2 2 2 2 2 1 1 1 1 0 0 0 0 0 0 0 0 0 0 0 0 0 0 0 1
0 0 0 0 0 0 0 1 1 1 1 2 2 2 3 3 3 2 2 2 2 2 2 2 2 2 1 1 0 0 0 0 0 0 0 0 0 0 0 0 0 0 0
0 0 0 0 0 0 0 0 0 0 1 1 1 1 2 2 2 3 3 3 3 3 3 3 2 2 1 1 1 1 0 0 0 0 0 0 0 0 0 0 0 0 0
0 0 0 0 0 0 0 0 0 0 0 0 0 0 1 1 1 2 2 3 3 3 3 3 2 2 2 1 1 1 0 0 0 0 0 0 0 0 0 0 0 0 0
0 0 0 0 0 0 0 0 0 0 0 0 0 0 0 0 1 1 1 2 2 2 3 3 2 2 2 1 1 1 1 0 0 0 0 0 0 0 0 0 0 0 0
0 0 0 0 0 0 0 0 0 0 0 0 0 0 0 0 0 0 0 1 1 1 2 2 2 2 2 1 1 1 1 0 0 0 0 0 0 0 0 0 0 0 0
0 0 0 0 0 0 0 0 0 0 0 0 0 0 0 0 0 0 0 0 0 0 1 1 1 1 1 1 1 1 1 1 0 0 0 0 0 0 0 0 0 0 0
0 0 0 0 0 0 0 0 0 0 0 0 0 0 0 0 0 0 0 0 0 0 0 0 1 1 1 1 1 1 1 1 0 0 0 0 0 0 0 0 0 0 0
0 0 0 0 0 0 0 0 0 0 0 0 0 0 0 0 0 0 0 0 0 0 0 0 0 0 1 1 1 1 1 1 1 0 0 0 0 0 0 0 0 0 0
0 0 0 0 0 0 0 0 0 0 0 0 0 0 0 0 0 0 0 0 0 0 0 0 0 0 0 1 1 1 1 1 1 1 0 0 0 0 0 0 0 0 0
0 0 0 0 0 0 0 0 0 0 0 0 0 0 0 0 0 0 0 0 0 0 0 0 0 0 0 0 0 0 0 1 1 1 0 0 0 0 0 0 0 0 0
0 0 0 0 0 0 0 0 0 0 0 0 0 0 0 0 0 0 0 0 0 0 0 0 0 0 0 0 0 0 0 1 1 1 0 0 0 0 0 0 0 0 0
0 0 0 0 0 0 0 0 0 0 0 0 0 0 0 0 0 0 0 0 0 0 0 0 0 0 0 0 0 0 0 0 0 0 0 0 0 0 0 0 0 0 0
0 0 0 0 0 0 0 0 0 0 0 0 0 0 0 0 0 0 0 0 0 0 0 0 0 0 0 0 0 0 0 0 0 0 0 0 0 0 0 0 0 0 0
0 0 0 0 0 0 0 0 0 0 0 0 0 0 0 0 0 0 0 0 0 0 0 0 0 0 0 0 0 0 0 0 0 0 0 0 0 0 0 0 0 0 0
0 0 0 0 0 0 0 0 0 0 0 0 0 0 0 0 0 0 0 0 0 0 0 0 0 0 0 0 0 0 0 0 0 0 0 0 0 0 0 0 0 0 0
0 0 0 0 0 0 0 0 0 0 0 0 0 0 0 0 0 0 0 0 0 0 0 0 0 0 0 0 0 0 0 0 0 0 0 0 0 0 0 0 0 0 0
0 0 0 0 0 0 0 0 0 0 0 0 0 0 0 0 0 0 0 0 0 0 0 0 0 0 0 0 0 0 0 0 0 0 0 0 0 0 0 0 0 0 0
0 0 0 0 0 0 0 0 0 0 0 0 0 0 0 0 0 0 0 0 0 0 0 0 0 0 0 0 0 0 0 0 0 0 0 0 0 0 0 0 0 0 0
0 0 0 0 0 0 0 0 0 0 0 0 0 0 0 0 0 0 0 0 0 0 0 0 0 0 0 0 0 0 0 0 0 0 0 0 0 0 0 0 0 0 0
0 0 0 0 0 0 0 0 0 0 0 0 0 0 0 0 0 0 0 0 0 0 0 0 0 0 0 0 0 0 0 0 0 0 0 0 0 0 0 0 0 0 0
Wind_Speed
3 1 2 3 2 4 8 8 7 6 4 3 4 4 3 3 2 2 4 4 1 1 1 3 3 3 3 4 5 5 6 6 5 5 6 7 8 9 8 9 8 10 10
15 17 17 13 14 12 7 6 7 5 3 2 1 1 1 1 1 2 4 3 2 1 2 2 2 4 4 5 5 5 4 5 5 5 6 6 6 6 9 8 9 10 8
15 13 12 12 14 15 14 8 5 3 2 2 2 1 2 1 2 2 3 4 3 2 1 1 3 3 4 4 4 4 6 5 5 4 4 4 5 6 6 6 5 6 6
13 11 11 10 9 9 9 9 8 4 3 1 2 3 2 2 2 1 2 4 4 3 3 3 3 3 4 5 5 4 4 5 5 5 4 6 6 6 6 7 6 6 5
14 14 14 11 10 10 9 9 9 9 8 7 5 4 4 4 3 2 0 2 3 5 5 5 4 3 4 5 5 4 5 4 6 5 5 6 5 6 6 8 7 6 4
15 15 14 12 11 11 10 10 9 10 10 10 8 7 7 7 7 6 5 3 3 4 6 6 4 4 4 5 4 5 6 5 6 5 5 6 5 5 5 6 6 6 4
13 13 13 12 11 12 11 10 10 10 10 11 11 9 8 7 6 6 6 6 4 3 3 3 3 3 4 5 5 5 6 6 7 6 6 5 6 6 6 6 6 5 3
10 10 10 10 9 10 10 9 9 8 8 8 8 7 8 6 6 7 6 6 5 4 2 1 2 4 5 6 5 5 6 6 5 7 7 5 6 6 6 5 5 5 4
9 9 8 8 7 7 6 6 6 5 6 6 5 4 6 6 7 7 7 6 6 7 6 4 4 5 5 6 6 5 6 6 6 6 6 5 5 5 5 5 5 5 4
9 10 9 8 7 6 4 4 3 3 4 5 5 6 5 5 5 6 6 6 7 7 8 7 7 6 6 6 6 6 6 6 6 5 6 6 5 4 4 5 5 5 5
10 10 10 10 10 9 7 6 5 5 5 5 5 6 6 7 7 6 6 6 6 7 7 7 8 8 8 7 7 7 7 6 6 5 5 5 6 4 4 4 4 5 5
10 11 12 11 11 10 10 9 8 7 6 6 6 6 6 7 7 8 7 7 7 7 8 8 8 9 9 8 7 8 7 6 6 5 5 5 4 4 3 3 4 3 4
13 13 12 11 10 9 9 9 9 9 9 8 7 7 7 7 8 8 8 8 8 8 9 9 9 9 9 9 8 8 7 6 5 4 4 4 3 3 2 2 2 1 3
14 15 11 9 8 7 8 9 10 10 10 9 8 8 8 9 9 9 9 9 9 9 9 9 9 9 10 10 10 9 7 6 4 3 2 2 1 1 1 1 0 2 5
19 15 11 9 8 9 8 8 8 8 9 9 9 9 9 8 9 9 9 9 9 11 9 9 8 8 9 10 9 8 8 6 4 3 2 2 4 3 2 2 2 4 5
17 15 14 13 12 10 11 10 9 9 8 9 10 9 8 8 9 9 9 10 10 10 10 9 9 9 10 10 11 9 7 5 4 4 4 6 5 7 7 8 6 5 6
18 19 17 14 11 11 10 10 10 9 9 9 10 9 9 9 9 11 10 9 9 9 9 9 8 8 8 10 11 11 8 6 5 5 6 6 7 7 7 7 8 7 7
21 18 16 16 15 14 13 11 12 11 11 10 10 10 9 10 9 9 9 8 7 7 7 8 9 8 9 9 9 10 9 7 6 7 7 7 8 8 7 7 7 6 6
17 16 18 19 16 15 15 12 12 12 13 13 11 11 10 11 10 9 9 8 7 7 8 9 9 9 7 7 8 9 8 7 7 7 8 9 9 11 10 8 9 9 7
17 16 18 17 15 13 12 12 14 14 14 13 12 11 11 11 11 10 9 8 7 7 9 10 9 9 7 6 7 9 7 7 6 7 8 11 11 13 11 8 9 9 8
19 17 16 13 11 11 11 13 14 14 14 13 12 12 11 11 11 10 9 9 9 9 9 9 9 8 8 7 8 10 7 7 7 8 8 8 15 14 11 9 8 10 10
21 19 14 13 11 11 12 14 14 14 13 13 14 13 12 13 13 10 9 9 9 9 9 9 10 8 6 6 8 11 11 9 6 7 8 10 16 14 11 8 12 14 11
19 17 17 16 14 13 13 15 15 14 15 15 15 14 14 12 12 11 10 9 8 9 9 8 8 7 4 4 7 9 9 9 6 4 10 16 17 14 9 11 14 12 6
19 18 19 20 19 18 16 16 16 15 15 15 14 13 12 12 11 9 9 9 9 8 8 7 6 4 2 2 3 3 4 4 5 5 13 18 15 10 10 10 8 5 4
18 19 19 20 22 20 18 18 16 15 15 14 13 12 11 10 10 9 8 9 8 7 6 4 4 3 3 2 4 4 4 4 4 9 10 9 8 8 8 7 6 4 3
20 20 21 21 21 20 20 19 16 14 13 12 11 9 8 8 8 8 8 10 10 9 6 4 2 3 4 5 5 6 6 4 8 10 10 10 9 9 9 8 7 5 4
Wind_Direction
213 116 39 4 16 124 138 146 140 136 156 170 175 182 173 186 174 156 124 113 97 20 18 303 324 310 291 308 317 311 305 298 285 279 277 266 256 246 235 231 234 236 235
30 27 25 20 23 13 43 88 111 139 183 162 164 146 114 168 161 106 116 147 169 158 280 334 331 310 317 302 280 278 280 287 293 294 295 289 280 266 256 231 222 226 229
55 46 36 25 28 24 26 16 61 109 243 148 198 214 138 220 242 188 173 159 144 158 234 291 284 297 294 289 313 308 291 291 294 287 287 296 293 314 300 298 267 233 222
57 61 59 55 41 43 36 21 16 28 2 354 328 316 288 263 258 214 173 145 159 191 203 224 245 263 280 293 292 302 322 300 291 289 274 266 280 292 301 307 305 288 250
56 54 57 56 48 45 47 38 28 19 5 2 357 336 307 303 306 319 202 158 196 197 202 207 215 242 262 270 278 291 282 280 282 288 292 290 287 269 268 284 294 304 308
63 59 57 56 54 50 48 46 41 34 22 15 6 353 334 323 318 318 311 285 246 214 205 196 194 220 249 270 279 274 273 268 271 274 277 280 279 278 269 269 278 282 282
62 60 55 52 51 49 47 44 40 34 29 28 15 6 350 336 321 312 299 287 274 257 218 197 179 226 257 266 266 267 268 270 271 270 268 268 270 273 272 271 276 279 287
54 55 54 50 45 44 41 39 36 30 25 28 16 13 7 354 345 344 327 311 304 303 322 253 223 235 248 262 267 275 273 270 272 278 276 270 268 264 266 264 268 275 271
28 30 31 33 32 30 34 30 26 17 8 6 356 359 3 353 346 337 329 328 329 317 320 308 269 251 249 252 260 263 269 273 273 275 278 275 269 262 260 255 243 238 246
5 5 0 358 358 349 352 359 353 344 335 332 331 333 341 330 327 325 332 332 330 324 315 304 293 278 264 254 252 258 263 270 272 269 269 273 275 272 268 257 246 229 223
344 340 336 335 330 327 330 337 338 333 325 323 321 320 317 317 315 309 311 317 318 318 313 303 290 280 273 263 255 256 262 267 275 282 286 287 284 277 270 262 250 234 210
322 320 319 318 316 318 322 323 323 316 309 305 301 299 300 301 301 301 306 309 307 305 305 305 297 283 274 267 263 261 266 269 275 281 289 292 296 292 283 270 253 232 196
313 308 302 298 295 293 291 289 288 284 278 275 271 272 273 277 280 283 287 288 289 291 294 297 298 294 284 274 268 262 261 262 268 276 285 294 306 305 300 286 262 194 151
310 306 302 296 291 286 279 274 272 270 272 265 261 259 259 260 262 265 268 271 275 278 279 281 287 291 292 281 269 264 259 255 257 261 267 285 333 331 317 311 114 130 129
311 311 316 320 314 305 295 290 283 277 275 271 267 261 256 253 254 256 258 259 263 269 271 274 278 286 287 279 277 267 259 246 235 223 192 108 91 74 75 114 121 131 132
320 328 325 319 314 310 304 298 291 283 273 268 269 267 262 259 257 256 257 255 255 257 259 263 269 274 282 298 304 285 267 249 226 200 158 139 125 105 91 87 88 111 134
331 323 318 313 305 300 293 287 288 287 283 279 278 273 270 268 262 266 265 260 260 261 259 259 262 266 274 282 281 273 263 240 216 193 174 170 145 141 123 107 98 91 104
321 316 312 309 303 300 299 296 297 292 288 284 282 278 273 273 269 263 261 260 260 262 267 267 264 260 267 279 273 263 256 242 214 189 177 159 155 154 146 135 114 93 84
312 311 308 304 300 298 297 293 292 291 288 286 283 283 280 278 274 270 266 264 262 262 264 268 263 257 255 257 255 246 251 237 211 185 169 161 159 155 153 137 120 108 95
310 304 302 299 296 296 296 291 290 287 285 285 283 282 278 275 273 270 268 269 266 263 262 263 261 259 254 247 234 225 243 237 206 175 164 165 156 158 157 144 135 128 125
307 305 302 300 298 297 291 288 288 286 287 288 286 283 278 274 271 267 263 262 263 264 261 263 265 259 252 247 224 213 227 242 206 175 163 156 151 153 151 145 138 138 134
310 310 308 306 306 307 303 299 295 294 293 290 285 280 276 274 272 263 260 258 258 260 258 256 257 254 241 235 215 208 216 241 235 187 158 150 151 148 145 139 142 147 145
317 319 319 316 314 312 307 300 296 294 290 284 279 275 274 269 266 263 260 258 253 251 253 249 248 244 225 208 211 208 212 227 236 217 152 147 147 140 137 147 154 161 165
328 329 324 319 314 310 303 295 293 290 284 279 275 272 270 267 262 256 252 250 249 246 244 244 244 234 197 192 186 185 185 186 198 161 141 139 144 141 136 146 160 179 182
332 328 323 316 311 307 301 295 290 285 280 277 273 268 263 261 259 254 246 245 243 244 242 246 230 204 196 185 167 169 159 160 164 145 144 143 146 147 147 158 171 187 174
329 324 317 312 308 305 301 297 289 281 275 273 269 262 256 253 249 249 252 236 232 230 214 205 187 128 131 149 162 161 151 158 168 158 150 150 155 156 157 164 173 178 156